FW7911 Weather Reports


Display with metric or nautical units.
time (UTC)temp
F
wind
direction
speed
MPH
gust
MPH
rain 1hr
in
rain 24hr
in
rain mn
in
humidity
%
barometer
mb
20260505193108 55 232 1.0 3.0 0.00 0.16 0.16 88 1008.8
20260505192108 56 258 1.0 4.0 0.00 0.16 0.16 87 1008.7
20260505191108 57 228 1.0 4.0 0.00 0.16 0.16 86 1008.4
20260505185113 58 256 2.0 5.0 0.01 0.16 0.16 86 1008.3
20260505183113 58 219 4.0 10.0 0.01 0.16 0.16 84 1008.0
20260505182113 58 228 5.0 8.0 0.01 0.16 0.16 86 1007.9
20260505181113 59 182 8.0 15.0 0.01 0.16 0.16 86 1007.9
20260505180112 60 185 11.0 18.0 0.01 0.16 0.16 84 1008.2
20260505175112 61 225 4.0 10.0 0.00 0.16 0.15 82 1007.9
20260505174112 62 232 3.0 5.0 0.00 0.16 0.15 80 1007.8
20260505173112 62 250 2.0 5.0 0.00 0.16 0.15 79 1007.7
20260505172112 63 261 1.0 6.0 0.00 0.16 0.15 78 1007.7
20260505170112 64 262 3.0 7.0 0.00 0.16 0.15 74 1007.6
20260505165112 65 250 4.0 7.0 0.00 0.17 0.15 73 1007.6
20260505164112 64 277 3.0 14.0 0.00 0.17 0.15 75 1007.7
20260505163112 63 251 5.0 12.0 0.00 0.17 0.15 77 1007.7
20260505162112 63 166 4.0 8.0 0.00 0.17 0.15 78 1007.7
20260505160112 62 218 4.0 11.0 0.00 0.17 0.15 80 1007.5
20260505153112 62 253 4.0 8.0 0.01 0.17 0.15 85 1007.8
20260505152111 60 241 4.0 8.0 0.09 0.17 0.15 86 1007.8
20260505151111 58 182 2.0 6.0 0.13 0.17 0.15 88 1007.9
20260505140111 67 233 1.0 3.0 0.00 0.02 0.00 74 1007.3
20260505130110 65 116 2.0 5.0 0.00 0.02 0.00 74 1007.8
20260505124110 66 141 1.0 2.0 0.00 0.02 0.00 73 1008.1
20260505123110 65 157 3.0 4.0 0.00 0.02 0.00 77 1008.2
20260505122110 64 33 1.0 3.0 0.00 0.02 0.00 79 1008.2
20260505121111 63 235 3.0 5.0 0.00 0.02 0.00 78 1008.3
20260505115110 62 296 2.0 5.0 0.00 0.02 0.00 82 1008.6
20260505113110 61 289 1.0 4.0 0.00 0.02 0.00 82 1008.8
20260505111110 62 260 2.0 4.0 0.00 0.02 0.00 81 1008.9
20260505102110 61 300 0.0 1.0 0.00 0.02 0.00 83 1009.0
20260505101110 60 310 0.0 2.0 0.00 0.02 0.00 83 1008.9
20260505100109 61 313 1.0 4.0 0.00 0.02 0.00 82 1009.0
20260505094109 60 299 1.0 3.0 0.00 0.02 0.00 84 1008.9
20260505093114 60 330 0.0 0.0 0.00 0.02 0.00 84 1009.0
20260505092114 60 344 0.0 2.0 0.00 0.02 0.00 85 1008.9
20260505090114 60 282 0.0 0.0 0.00 0.02 0.00 87 1009.3
20260505085114 59 286 0.0 2.0 0.00 0.02 0.00 87 1009.4
20260505084114 59 279 0.0 2.0 0.00 0.02 0.00 87 1009.4
20260505083113 60 293 1.0 3.0 0.00 0.02 0.00 87 1009.5
20260505082113 59 284 1.0 4.0 0.00 0.02 0.00 86 1009.7
20260505081113 60 265 0.0 3.0 0.00 0.02 0.00 86 1009.6
20260505080113 59 280 0.0 1.0 0.00 0.02 0.00 86 1009.7
20260505075113 59 247 0.0 1.0 0.00 0.02 0.00 87 1009.7
20260505073113 58 314 0.0 0.0 0.00 0.02 0.00 90 1009.7
20260505072113 57 310 0.0 0.0 0.00 0.02 0.00 91 1009.8
20260505071113 56 284 0.0 0.0 0.00 0.02 0.00 91 1010.0
20260505070113 56 282 0.0 0.0 0.00 0.02 0.00 92 1010.1
20260505065113 56 275 0.0 0.0 0.00 0.02 0.00 92 1010.1
20260505063112 55 258 0.0 3.0 0.00 0.02 0.00 93 1010.3
20260505062112 55 285 1.0 3.0 0.00 0.02 0.00 93 1010.3
20260505061112 55 280 0.0 0.0 0.00 0.02 0.00 94 1010.3
20260505054112 54 282 0.0 0.0 0.00 0.02 0.00 94 1010.5
20260505053112 54 282 1.0 2.0 0.00 0.02 0.00 94 1010.3
20260505052112 53 278 1.0 4.0 0.00 0.02 0.00 94 1010.2
20260505051112 53 295 0.0 1.0 0.00 0.02 0.00 94 1010.2
20260505050112 53 295 0.0 1.0 0.00 0.02 0.00 94 1010.3
20260505041111 53 295 0.0 3.0 0.00 0.02 0.00 92 1010.2
20260505040111 53 303 0.0 2.0 0.00 0.02 0.00 92 1010.2
20260505034111 53 22 0.0 1.0 0.00 0.02 0.00 92 1010.2
20260505033111 53 22 0.0 1.0 0.00 0.02 0.00 92 1010.1
20260505032111 53 22 0.0 0.0 0.00 0.02 0.00 92 1010.1
20260505031111 53 22 0.0 0.0 0.00 0.02 0.00 92 1010.2
20260505030111 53 25 1.0 2.0 0.00 0.02 0.00 93 1010.3
20260505025111 53 168 4.0 6.0 0.00 0.02 0.00 93 1010.3
20260505023111 52 121 0.0 0.0 0.00 0.02 0.00 94 1010.5
20260505022110 52 273 0.0 0.0 0.00 0.02 0.00 94 1010.6
20260505021110 52 273 0.0 0.0 0.00 0.02 0.00 94 1010.8
20260505014110 52 273 0.0 0.0 0.00 0.02 0.00 93 1011.0
20260505013110 52 273 0.0 0.0 0.00 0.02 0.00 92 1011.1
20260505012111 53 273 0.0 0.0 0.00 0.02 0.00 92 1011.3
20260505011111 53 273 0.0 0.0 0.00 0.02 0.00 92 1011.3
20260505010110 53 273 0.0 0.0 0.00 0.02 0.00 91 1011.3
20260505005110 53 273 0.0 0.0 0.00 0.02 0.00 90 1011.6
20260505004110 54 273 0.0 2.0 0.00 0.02 0.00 91 1011.6
20260505003110 54 260 1.0 2.0 0.00 0.02 0.00 91 1011.8
20260505001110 54 228 1.0 1.0 0.00 0.02 0.00 92 1011.9
20260504234110 54 248 2.0 2.0 0.00 0.02 0.00 92 1012.3
20260504233110 54 267 0.0 1.0 0.00 0.02 0.00 92 1012.4
20260504232110 54 251 2.0 5.0 0.00 0.02 0.00 92 1012.5
20260504231109 70 234 2.0 4.0 0.00 0.00 0.00 51 1013.3
20260504230109 70 234 2.0 4.0 0.00 0.00 0.00 51 1013.3
20260504225109 70 234 2.0 4.0 0.00 0.00 0.00 51 1013.3
20260504224109 70 234 2.0 4.0 0.00 0.00 0.00 51 1013.3
20260504223109 70 234 2.0 4.0 0.00 0.00 0.00 51 1013.3
20260504222110 70 234 2.0 4.0 0.00 0.00 0.00 51 1013.3
20260504221113 70 234 2.0 4.0 0.00 0.00 0.00 51 1013.3
20260504220113 70 234 2.0 4.0 0.00 0.00 0.00 51 1013.3
20260504215113 70 234 2.0 4.0 0.00 0.00 0.00 51 1013.3
20260504214114 70 234 2.0 4.0 0.00 0.00 0.00 51 1013.3
20260504213113 70 234 2.0 4.0 0.00 0.00 0.00 51 1013.3
20260504211113 70 234 2.0 4.0 0.00 0.00 0.00 51 1013.3
20260504210113 70 234 2.0 4.0 0.00 0.00 0.00 51 1013.3
20260504205113 70 234 2.0 4.0 0.00 0.00 0.00 51 1013.3
20260504204113 70 234 2.0 4.0 0.00 0.00 0.00 51 1013.3
20260504203113 70 234 2.0 4.0 0.00 0.00 0.00 51 1013.3
20260504202113 70 234 2.0 4.0 0.00 0.00 0.00 51 1013.3
20260504201113 70 234 2.0 4.0 0.00 0.00 0.00 51 1013.3
20260504195112 70 234 2.0 4.0 0.00 0.00 0.00 51 1013.3